Weather History for Smithfield, NC

Change the Weather History Date:

Monday, July 28, 2014

  Actual Average Record
Temperature  
Mean Temperature 79 °F -  
Max Temperature 89 °F 89 °F 105 °F (1952)
Min Temperature 69 °F 68 °F 54 °F (1962)
Cooling Degree Days 14    
Growing Degree Days 29 (Base 50)    
Moisture  
Dew Point 68 °F    
Average Humidity 64    
Maximum Humidity 94    
Minimum Humidity 43    
Precipitation  
Precipitation 0.00 in - - ()
Sea Level Pressure  
Sea Level Pressure 29.79 in    
Wind  
Wind Speed 4 mph (West)    
Max Wind Speed 8 mph    
Max Gust Speed -    
Visibility 10 miles    
Events      
Averages and records for this station are not official NWS values.
T = Trace of Precipitation, MM = Missing Value Source: NWS Daily Summary

Daily Weather History Graph

Daily Weather History Graph

Search for Another Location

Airport:

Trip Planner

Search our weather history database for the weather conditions in past years. The results will help you decide how hot, cold, wet, or windy it might be!

Date:

Astronomy

Jul. 28, 2014 Rise Set
Actual Time 6:18 AM EDT 8:20 PM EDT
Civil Twilight 5:50 AM EDT 8:49 PM EDT
Nautical Twilight 5:15 AM EDT 9:23 PM EDT
Astronomical Twilight 4:38 AM EDT 10:00 PM EDT
Moon 7:53 AM EDT (7/28) 9:07 PM EDT (7/28)
Length of Visible Light 14h 58m
Length of Day
14h 02m
Waxing Crescent, 3% of the Moon is Illuminated
Jul 28
Waxing Crescent
Aug 3
First Quarter
Aug 10
Full
Aug 17
Last Quarter
Aug 25
New

Hourly Weather History & Observations

Time (EDT) Temp. Heat Index Dew Point Humidity Pressure Visibility Wind Dir Wind Speed Gust Speed Precip Events Conditions
12:15 AM 82.4 °F 88.2 °F 73.4 °F 74% 29.77 in 10.0 mi SW 8.1 mph - N/A   Clear
12:35 AM 82.4 °F 88.2 °F 73.4 °F 74% 29.77 in 10.0 mi SW 3.5 mph - N/A   Clear
12:50 AM 82.4 °F 88.2 °F 73.4 °F 74% 29.77 in 10.0 mi SSW 4.6 mph - N/A   Scattered Clouds
1:15 AM 82.4 °F 89.5 °F 75.2 °F 79% 29.76 in 10.0 mi SSW 3.5 mph - N/A   Scattered Clouds
1:35 AM 80.6 °F 86.2 °F 75.2 °F 84% 29.76 in 10.0 mi Calm Calm - N/A   Clear
1:55 AM 78.8 °F - 75.2 °F 89% 29.74 in 10.0 mi Calm Calm - N/A   Clear
2:15 AM 78.8 °F - 75.2 °F 89% 29.74 in 10.0 mi Calm Calm - N/A   Clear
2:37 AM 77.0 °F - 75.2 °F 94% 29.74 in 10.0 mi Calm Calm - N/A   Clear
3:16 AM 82.4 °F 88.2 °F 73.4 °F 74% 29.76 in 10.0 mi West 6.9 mph - N/A   Clear
3:30 AM 80.6 °F 84.6 °F 71.6 °F 74% 29.75 in 10.0 mi WSW 5.8 mph - N/A   Clear
3:55 AM 80.6 °F 84.6 °F 71.6 °F 74% 29.74 in 10.0 mi SW 4.6 mph - N/A   Clear
4:15 AM 80.6 °F 83.9 °F 69.8 °F 70% 29.74 in 10.0 mi WSW 3.5 mph - N/A   Clear
4:40 AM 80.6 °F 83.2 °F 68.0 °F 65% 29.74 in 10.0 mi WSW 5.8 mph - N/A   Clear
4:55 AM 80.6 °F 83.2 °F 68.0 °F 65% 29.74 in 10.0 mi WSW 5.8 mph - N/A   Clear
5:15 AM 80.6 °F 82.3 °F 64.4 °F 58% 29.74 in 10.0 mi WSW 6.9 mph - N/A   Scattered Clouds
5:35 AM 78.8 °F - 64.4 °F 61% 29.74 in 10.0 mi WSW 4.6 mph - N/A   Mostly Cloudy
5:55 AM 78.8 °F - 64.4 °F 61% 29.74 in 10.0 mi WSW 6.9 mph - N/A   Scattered Clouds
6:10 AM 78.8 °F - 64.4 °F 61% 29.74 in 10.0 mi WSW 5.8 mph - N/A   Scattered Clouds
6:35 AM 77.0 °F - 64.4 °F 65% 29.74 in 10.0 mi SW 3.5 mph - N/A   Clear
6:55 AM 77.0 °F - 64.4 °F 65% 29.76 in 10.0 mi SW 4.6 mph - N/A   Clear
7:35 AM 78.8 °F - 66.2 °F 65% 29.77 in 10.0 mi West 5.8 mph - N/A   Clear
7:57 AM 78.8 °F - 66.2 °F 65% 29.78 in 10.0 mi WSW 6.9 mph - N/A   Clear
8:16 AM 78.8 °F - 66.2 °F 65% 29.78 in 10.0 mi West 5.8 mph - N/A   Clear
8:35 AM 80.6 °F 82.7 °F 66.2 °F 61% 29.78 in 10.0 mi WSW 4.6 mph - N/A   Clear
8:55 AM 80.6 °F 83.2 °F 68.0 °F 65% 29.79 in 10.0 mi West 4.6 mph - N/A   Clear
9:16 AM 80.6 °F 83.2 °F 68.0 °F 65% 29.79 in 10.0 mi West 5.8 mph - N/A   Clear
9:36 AM 82.4 °F 85.4 °F 68.0 °F 62% 29.80 in 10.0 mi West 5.8 mph - N/A   Clear
9:55 AM 82.4 °F 85.4 °F 68.0 °F 62% 29.80 in 10.0 mi West 6.9 mph - N/A   Clear
10:35 AM 84.2 °F 87.3 °F 68.0 °F 58% 29.80 in 10.0 mi WSW 6.9 mph - N/A   Clear
10:56 AM 84.2 °F 88.4 °F 69.8 °F 62% 29.80 in 10.0 mi West 3.5 mph - N/A   Clear
11:15 AM 84.2 °F 88.4 °F 69.8 °F 62% 29.80 in 10.0 mi West 4.6 mph - N/A   Clear
11:35 AM 86.0 °F 89.4 °F 68.0 °F 55% 29.80 in 10.0 mi West 6.9 mph - N/A   Clear
11:58 AM 86.0 °F 89.4 °F 68.0 °F 55% 29.80 in 10.0 mi West 5.8 mph - N/A   Clear
12:15 PM 87.8 °F 91.4 °F 68.0 °F 52% 29.80 in 10.0 mi West 5.8 mph - N/A   Clear
12:35 PM 87.8 °F 90.4 °F 66.2 °F 49% 29.80 in 10.0 mi West 8.1 mph - N/A   Clear
12:56 PM 87.8 °F 90.4 °F 66.2 °F 49% 29.80 in 10.0 mi West 8.1 mph - N/A   Clear
1:15 PM 87.8 °F 90.4 °F 66.2 °F 49% 29.79 in 10.0 mi Calm Calm - N/A   Scattered Clouds
1:35 PM 87.8 °F 90.4 °F 66.2 °F 49% 29.79 in 10.0 mi West 6.9 mph - N/A   Scattered Clouds
1:55 PM 87.8 °F 90.4 °F 66.2 °F 49% 29.79 in 10.0 mi WNW 5.8 mph - N/A   Scattered Clouds
2:15 PM 89.6 °F 91.1 °F 64.4 °F 43% 29.79 in 10.0 mi West 6.9 mph - N/A   Scattered Clouds
2:35 PM 89.6 °F 91.1 °F 64.4 °F 43% 29.79 in 10.0 mi NNW 4.6 mph - N/A   Scattered Clouds
2:55 PM 89.6 °F 91.1 °F 64.4 °F 43% 29.79 in 10.0 mi West 4.6 mph - N/A   Clear
3:17 PM 87.8 °F 89.4 °F 64.4 °F 46% 29.78 in 10.0 mi West 6.9 mph - N/A   Scattered Clouds
3:37 PM 89.6 °F 91.1 °F 64.4 °F 43% 29.78 in 10.0 mi NW 3.5 mph - N/A   Scattered Clouds
3:55 PM 89.6 °F 92.2 °F 66.2 °F 46% 29.78 in 10.0 mi WNW 4.6 mph - N/A   Scattered Clouds
4:15 PM 89.6 °F 92.2 °F 66.2 °F 46% 29.78 in 10.0 mi Calm Calm - N/A   Clear
4:35 PM 89.6 °F 92.2 °F 66.2 °F 46% 29.77 in 10.0 mi NW 5.8 mph - N/A   Clear
4:55 PM 89.6 °F 91.1 °F 64.4 °F 43% 29.77 in 10.0 mi NW 6.9 mph - N/A   Clear
5:15 PM 89.6 °F 91.1 °F 64.4 °F 43% 29.76 in 10.0 mi Calm Calm - N/A   Clear
5:36 PM 87.8 °F 89.4 °F 64.4 °F 46% 29.77 in 10.0 mi North 3.5 mph - N/A   Mostly Cloudy
5:55 PM 86.0 °F 87.3 °F 64.4 °F 48% 29.77 in 10.0 mi Calm Calm - N/A   Scattered Clouds
6:15 PM 87.8 °F 89.4 °F 64.4 °F 46% 29.77 in 10.0 mi North 4.6 mph - N/A   Scattered Clouds
6:35 PM 87.8 °F 89.4 °F 64.4 °F 46% 29.78 in 10.0 mi North 4.6 mph - N/A   Scattered Clouds
6:55 PM 87.8 °F 89.4 °F 64.4 °F 46% 29.79 in 10.0 mi North 4.6 mph - N/A   Scattered Clouds
7:15 PM 86.0 °F 87.3 °F 64.4 °F 48% 29.79 in 10.0 mi Calm Calm - N/A   Clear
7:36 PM 84.2 °F 85.6 °F 64.4 °F 51% 29.80 in 10.0 mi NNW 3.5 mph - N/A   Clear
7:56 PM 82.4 °F 83.9 °F 64.4 °F 54% 29.81 in 10.0 mi NNW 3.5 mph - N/A   Clear
8:15 PM 80.6 °F 82.7 °F 66.2 °F 61% 29.82 in 10.0 mi Calm Calm - N/A   Clear
8:35 PM 75.2 °F - 69.8 °F 83% 29.82 in 10.0 mi Calm Calm - N/A   Clear
8:56 PM 73.4 °F - 69.8 °F 88% 29.82 in 10.0 mi Calm Calm - N/A   Clear
9:15 PM 73.4 °F - 69.8 °F 88% 29.83 in 10.0 mi Calm Calm - N/A   Clear
9:35 PM 71.6 °F - 69.8 °F 94% 29.83 in 10.0 mi Calm Calm - N/A   Scattered Clouds
9:55 PM 71.6 °F - 69.8 °F 94% 29.84 in 10.0 mi Calm Calm - N/A   Scattered Clouds
10:15 PM 71.6 °F - 69.8 °F 94% 29.85 in 10.0 mi SSW 3.5 mph - N/A   Scattered Clouds
10:35 PM 71.6 °F - 68.0 °F 88% 29.85 in 10.0 mi Calm Calm - N/A   Scattered Clouds
10:55 PM 71.6 °F - 68.0 °F 88% 29.85 in 10.0 mi Calm Calm - N/A   Scattered Clouds
11:15 PM 69.8 °F - 66.2 °F 88% 29.86 in 10.0 mi Calm Calm - N/A   Clear
11:35 PM 69.8 °F - 66.2 °F 88% 29.86 in 10.0 mi Calm Calm - N/A   Clear
11:55 PM 69.8 °F - 66.2 °F 88% 29.86 in 10.0 mi South 3.5 mph - N/A   Mostly Cloudy